User: anonymous   Login
Location: *
(37.5724°S, 58.0067°E)
Time: 22:57:09
(UTC+00:00)
Language:

Cosmos 1726 - Orbit

View from above orbital plane
View from above orbital plane
View from above satellite
View from above satellite

Ground track
Ground track

The orbit data is extracted from the following two-line orbital elements,

1 16495U 86006A   20328.53364618 +.00001912 +00000-0 +74508-4 0  9997
2 16495 082.4738 250.3850 0014213 106.7779 253.5019 15.25248051907307
Epoch (UTC): 23 November 2020 12:48:27
Eccentricity: 0.0014213
inclination: 82.4738°
perigee height: 480 km
apogee height: 500 km
right ascension of ascending node: 250.3850°
argument of perigee: 106.7779°
revolutions per day: 15.25248051
mean anomaly at epoch: 253.5019°
orbit number at epoch: 90730

The dashed part of the orbit path shows where the satellite is in the earth's shadow,  

DLR